Regional Weather Roundup
Issued by NWS Cleveland, OH

Home | Current Version | Previous Version | Text Only | Print | Product List | Glossary On
Versions: 1 2 3 4 5 6 7 8 9 10 11 12 13 14 15 16 17 18 19 20 21 22 23 24 25 26 27 28 29 30 31 32 33 34 35 36 37 38 39 40 41 42 43 44 45 46 47 48 49 50
000
ASUS41 KCLE 070010
RWRCLE
OHIO REGIONAL WEATHER ROUNDUP
NATIONAL WEATHER SERVICE CLEVELAND, OH
700 PM EST FRI MAR 06 2015

NOTE: "FAIR" INDICATES FEW OR NO CLOUDS BELOW 12,000 FEET WITH NO
SIGNIFICANT WEATHER AND/OR OBSTRUCTIONS TO VISIBILITY.

OHZ001>008-015>018-024>027-034-035-043-044-070100-
   NORTHWEST OHIO

CITY           SKY/WX    TMP DP  RH WIND       PRES   REMARKS
DEFIANCE       CLEAR     22  10  60 S10       30.27F WCI  11
FINDLAY        PTCLDY    21  10  62 S13       30.29F WCI   9
TOLEDO EXPRESS MOCLDY    21  10  62 SW9       30.26F WCI  11
TOLEDO EXEC    CLOUDY    22  11  62 S13       30.28F WCI  10
LIMA           MOCLDY    23  10  57 S12       30.29F WCI  12
$$

OHZ009>014-019>023-028>033-038-089-070100-
   NORTHEAST OHIO

CITY           SKY/WX    TMP DP  RH WIND       PRES   REMARKS
CLE-HOPKINS    PTCLDY    22   6  50 S12       30.33F WCI  10
CLE-LAKEFRONT  MOCLDY    23   7  50 S13       30.31F WCI  11
CUY CO. ARPT   PTCLDY    23   9  54 S12       30.31S WCI  12
LORAIN-ELYRIA  CLEAR     19   7  59 SW10      30.31F WCI   7
ASHTABULA      PTCLDY    20   2  45 SW8       30.30S WCI  10
AKRON-CANTON   PTCLDY    19   4  51 SW9       30.31S WCI   8
WOOSTER        CLEAR     18   4  54 SW10      30.31F WCI   6
MANSFIELD      CLEAR     19   7  59 S13       30.29F WCI   6
YOUNGSTOWN     PTCLDY    20   4  50 S7        30.29F WCI  11
$$

OHZ042-051>053-060>062-070>072-077>081-070100-
  SOUTHWEST OHIO

CITY           SKY/WX    TMP DP  RH WIND       PRES   REMARKS
CINC-COVINGTON CLEAR     25   9  50 S7        30.37F WCI  17
CINC-LUNKEN    CLEAR     23  13  65 S8        30.41F WCI  14
HAMILTON       CLEAR     27  10  49 S7        30.38F WCI  19
DAYTON         PTCLDY    26  11  52 S14       30.33F WCI  14
WRIGHT-PAT AFB PTCLDY    25  11  55 S13       30.34F WCI  14
DAYTON GENERAL CLEAR     25  11  55 S10       30.34S WCI  15
WILMINGTON     CLEAR     20   9  62 S10       30.35F WCI   9
$$

OHZ036-037-039>041-045>050-054>059-063>069-073>076-082>088-070100-
  CENTRAL AND SOUTHEAST OHIO

CITY           SKY/WX    TMP DP  RH WIND       PRES   REMARKS
COLUMBUS       PTCLDY    21   7  54 S7        30.37F WCI  12
OSU AIRPORT    PTCLDY    21   6  52 S10       30.35F WCI  10
BOLTON FIELD   MOCLDY   N/A N/A N/A S7        30.36F
RICKENBACK AFB CLEAR     20   8  59 S6        30.38S WCI  12
NEWARK         CLEAR     20   7  57 SW6       30.36F WCI  12
MARION         CLEAR     19   8  62 S14       30.32F WCI   6
LANCASTER      CLEAR     20   8  60 SW3       30.38F
ZANESVILLE     CLEAR     21  11  65 S9        30.36F WCI  11
NEW PHILLY     CLEAR     25   5  42 S6        30.36S WCI  18
$$



USA.gov is the U.S. government's official web portal to all federal, state and local government web resources and services.